User: anonymous   Login
Location: Columbia
(38.9520°N, 92.3340°W)
Time: 16:20:34
(UTC-06:00)
Language:

Cosmos 1603 - Orbit

View from above orbital plane
View from above orbital plane
View from above satellite
View from above satellite

Ground track
Ground track

The orbit data is extracted from the following two-line orbital elements,

1 15333U 84106A   17326.59348101 -.00000077 +00000-0 -15455-4 0  9994
2 15333 071.0260 120.6742 0021360 320.7770 039.1803 14.14068953710411
Epoch (UTC): 22 November 2017 14:14:36
Eccentricity: 0.0021360
inclination: 71.0260°
perigee height: 830 km
apogee height: 861 km
right ascension of ascending node: 120.6742°
argument of perigee: 320.7770°
revolutions per day: 14.14068953
mean anomaly at epoch: 39.1803°
orbit number at epoch: 71041

The dashed part of the orbit path shows where the satellite is in the earth's shadow,  

DLR